Location: Carson
(33.8314°N, 118.2820°W)
Time: 12:57:37
(UTC+00:00)

Meteor 1-4 Rocket - Pass Details

Date: 23 November 2020
Orbit: 449 x 500 km, 81.2° (Epoch: 21 January)

Event Time Altitude Azimuth Distance (km) Brightness Sun altitude
Rises 13:45:50 0° 351° (N) 2,465 5.9 -10.0°
Reaches altitude 10° 13:47:55 10° 351° (N) 1,585 4.9 -9.6°
Maximum altitude 13:51:23 87° 261° (W) 454 2.4 -8.9°
Drops below altitude 10° 13:54:48 10° 174° (S) 1,570 5.5 -8.3°
Sets 13:56:51 0° 174° (S) 2,439 6.5 -7.9°
